COSMOS 2556 (52713 NORAD) Tracking and Keplerian Element Data

This shows tracking and keplerian element data for the satellite.

Feedback or suggestion? Click here.




ElementValue
Catalog52713
NameCOSMOS 2556
Epoch Orbit15083
Epoch Day35.19533337
Epoch Year2025
RAAN332.1747
Inclination97.5795
Eccentricity0.0012488
Argument of Perigee106.1929
Mean Anonmoly254.0685
Mean Motion15.27671626
Decay Rate9.969E-05
L11 52713U 22054A 25035.19533337 .00009969 00000+0 37050-3 0 9990
L22 52713 97.5795 332.1747 0012488 106.1929 254.0685 15.27671626150830



Live tracking and technical data element details for COSMOS 2556 (NORAD 52713). COSMOS 2556 can be tracked NOW for your location showing map with azimuth and elevation plus other details from your city location.







IsCatalogInMostPopularTable: catalog: 52713, numindb: 1054
Update: records affected: 1



GetName: 52713 COSMOS 2556

Hit Count: updated at: Wed, 14 May 2025 02:40:31 GMT